Regional Weather Roundup
Issued by NWS

Home | Current Version | Previous Version | Graphics & Text | Print | Product List | Glossary On
Versions: 1 2 3 4 5 6 7 8 9 10 11 12 13 14 15 16 17 18 19 20 21 22 23 24 25 26 27 28 29 30 31 32 33 34 35 36 37 38 39 40 41 42 43 44 45 46 47 48 49 50
000
ASUS43 KMKX 100111
RWRWI

WISCONSIN REGIONAL WEATHER ROUNDUP
NATIONAL WEATHER SERVICE MILWAUKEE/SULLIVAN WI
700 PM CST FRI DEC 09 2016

NOTE: "FAIR" INDICATES FEW OR NO CLOUDS BELOW 12,000 FEET WITH NO
SIGNIFICANT WEATHER AND/OR OBSTRUCTIONS TO VISIBILITY.

WIZ001-002-006>008-014>016-023>028-100200-
NORTHWEST WISCONSIN

CITY           SKY/WX    TMP DP  RH WIND       PRES   REMARKS
SUPERIOR ARPT  CLOUDY    11   2  66 NW8       30.50R WCI   0
ASHLAND        CLOUDY    12   4  70 W9        30.46S WCI   0
HAYWARD        CLOUDY    13   4  67 VRB3      30.42F
SIREN          CLOUDY    14   6  69 NW6       30.46S WCI   5
CUMBERLAND     CLOUDY    14   5  67 W8        30.43S WCI   3
RICE LAKE      CLOUDY    15   8  71 NW6       30.46S WCI   7
CHETEK         CLOUDY    16   9  73 NW5       30.45S WCI   9
LADYSMITH      CLOUDY    17  10  75 W6        30.43S WCI   8
EAU CLAIRE     LGT SNOW  16  13  88 SW3       30.46S FOG
MENOMONIE      FLURRIES  18  13  79 W5        30.47S WCI  11
NEW RICHMOND   CLOUDY    15   5  66 W8        30.47S WCI   3
OSCEOLA        CLOUDY    15   7  70 W9        30.51S WCI   4
$$

WIZ003>005-009-010-017-018-100200-
NORTH CENTRAL WISCONSIN

CITY           SKY/WX    TMP DP  RH WIND       PRES   REMARKS
MANITOWISH WTR CLOUDY    10   6  83 NW7       30.36S WCI   0
ARBOR VITAE    CLOUDY    17   8  67 W6        30.35S WCI   8
WOODRUFF       CLOUDY    17   8  67 W6        30.35S WCI   8
RHINELANDER    CLOUDY    15   8  73 W5        30.36S WCI   8
EAGLE RIVER    CLOUDY    14   5  67 W5        30.34F WCI   6
LAND O LAKES   FLURRIES  13   8  81 CALM      30.36S
PHILLIPS       CLOUDY    13   9  82 NW3       30.38S
TOMAHAWK       CLOUDY    14   9  79 CALM      30.38S
MEDFORD        FLURRIES  14   9  80 W5        30.39S WCI   6
MERRILL        CLOUDY    15  11  83 W6        30.41S WCI   7
$$

WIZ029-030-035-036-043>047-100200-
CENTRAL WISCONSIN

CITY           SKY/WX    TMP DP  RH WIND       PRES   REMARKS
WAUSAU         CLOUDY    15   9  76 W10       30.41R WCI   2
MOSINEE        CLOUDY    16  10  79 W8        30.43S WCI   5
MARSHFIELD     FLURRIES  16  10  77 W6        30.41F WCI   7
STEVENS POINT  CLOUDY    15   9  78 CALM      30.44F
WAUPACA        MOCLDY    18  10  68 CALM      30.46S
WAUTOMA        CLOUDY    16  11  80 CALM      30.47S
WISC RAPIDS    CLOUDY    16  10  77 NW3       30.45F
CAMP DOUGLAS   PTCLDY    15   9  78 W3        30.46F
$$

WIZ011>013-019>022-031-037>040-048>050-100200-
NORTHEAST WISCONSIN

CITY           SKY/WX    TMP DP  RH WIND       PRES   REMARKS
ANTIGO         CLOUDY    15   7  71 W5        30.37F WCI   7
SHAWANO        CLOUDY    22   8  54 NW3       30.45S
OCONTO         CLOUDY    20   8  59 W9        30.44S WCI   9
STURGEON BAY   CLOUDY    22   8  55 W14       30.42R WCI   9
GREEN BAY      CLOUDY    22   8  55 NW10      30.45R WCI  11
MANITOWOC      CLEAR     20   9  62 W6        30.45S WCI  12
APPLETON       MOCLDY    18   7  62 W7        30.43S WCI   8
CLINTONVILLE   CLOUDY    19   9  63 W5        30.45S WCI  13
OSHKOSH        MOCLDY    17   7  64 W5        30.46R WCI  10
$$

WIZ032>034-041-042-053>061-100200-
SOUTHWEST WISCONSIN

CITY           SKY/WX    TMP DP  RH WIND       PRES   REMARKS
LA CROSSE      PTCLDY    19  10  68 SW6       30.51S WCI  11
SPARTA         PTCLDY    18  11  75 W3        30.49S
VIROQUA        MOCLDY    15  10  82 W9        30.46S WCI   3
BOSCOBEL       CLOUDY    20  11  68 W7        30.52S WCI  11
PRAIRIE DU CHI CLOUDY    18  10  71 W6        30.53S WCI  10
PLATTEVILLE    CLEAR     15  13  90 SW5       30.50S WCI   8
$$

WIZ056-057-062-063-064-067-068-100200-
SOUTH CENTRAL WISCONSIN

CITY           SKY/WX    TMP DP  RH WIND       PRES   REMARKS
REEDSBURG      PTCLDY    18  10  72 W6        30.47S WCI  10
BARABOO/DELLS  PTCLDY    18  10  71 W6        30.46F WCI  10
LONE ROCK      MOCLDY    20  11  68 W7        30.51S WCI  11
MINERAL POINT  CLEAR     18  12  79 W5        30.47S WCI  11
MADISON        PTCLDY    19  11  70 VRB5      30.48S WCI  12
MIDDLETON      CLEAR     19  13  75 SW5       30.47F WCI  12
WATERTOWN      CLEAR     17  11  76 SW3       30.48R
MONROE         CLEAR     18  12  79 W9        30.47F WCI   6
JANESVILLE     CLEAR     19  12  73 W5        30.50S WCI  13
$$

WIZ051-052-058>065-066-070>072-100200-
SOUTHEAST WISCONSIN

CITY           SKY/WX    TMP DP  RH WIND       PRES   REMARKS
MILWAUKEE      MOCLDY    23   9  55 W6        30.49R WCI  16
WAUKESHA       CLEAR     18  10  73 CALM      30.48S
MILWAUKEE/TIMM CLEAR     19   9  63 W3        30.49R
RACINE         CLEAR     20   9  62 CALM      30.51R
BURLINGTON     CLEAR     24  19  80 W6        30.49S WCI  17
KENOSHA        CLEAR     18  11  74 W6        30.50R WCI  10
FOND DU LAC    PTCLDY    16   6  65 W3        30.46S
SHEBOYGAN      CLEAR     19   6  57 W6        30.46R WCI  11
WEST BEND      CLEAR     19  10  68 W5        30.46S WCI  13
JUNEAU         CLEAR     13   6  73 SW3       30.47S
$$

LSZ147-162-100200-
LAKE SUPERIOR

STATION/POSITION TIME  TEMP    WIND        PRES    WAVE
                       AIR SEA DIR/SP/G            HT/PER
                 (UTC) (F)     (DEG/KT/KT) (MB)    (FT/S)
DEVILS ISLAND    0000   13     280/ 20/ 23 1032.8F
PORT WING        0040   13     290/ 15/ 20 1032.2R
SAXON HARBOR     0030   14     250/  5/  8 1031.2S
$$

LMZ867-665-643>646-100200-
LAKE MICHIGAN

STATION/POSITION TIME  TEMP    WIND        PRES    WAVE
                       AIR SEA DIR/SP/G            HT/PER
                 (UTC) (F)     (DEG/KT/KT) (MB)    (FT/S)
CHAMBERS ISLAND  0040   23     260/  5/ 17 1029.1S
NORTHPORT PIER   0050   25     280/ 10/ 22 1029.1S
SISTER BAY       0050   24     300/ 18/ 20   N/A
ALGOMA LAKESHORE 2351          300/  9/ 16   N/A
KEWAUNEE LAKESHO 0048   22     310/ 10/ 13 1029.9R
SHEBOYGAN LAKESH 0100   21     280/  8/ 10 1032.4R
PORT WASHINGTON  0040   21     260/  3/  5 1032.8S
MILWAUKEE LAKESH 2300   24     300/  8/ 10   N/A
KENOSHA   LAKESH 0000   23     290/  5/  7 1032.5
$$

TC  - TEMPERATURE IN CELSIUS
VSB - VISIBILITY IN STATUTE MILES
WCI - WIND CHILL INDEX
HX  - HEAT INDEX




USA.gov is the U.S. government's official web portal to all federal, state and local government web resources and services.